AQI (49)

Current Conditions for Foresthill, CA. Sunny, Dry   
Visibility: 10 miles
Space WX Alerts: ALERT:  Geomagnetic K-index of 4 ( Latest Alert ) - Issue Time: 2018 Aug 17 0413 UTC

  Summary / Temperature 

Current Temperature
88.1°F
31.2°C
(24/hr Ago)
84.8°F
(Apparent temp)
88.9°F
Warm
Heat Index
86.2°F 

92.6°F/ 33.7°C
Noticeable discomfort

 Temp Rate:

 24/hr Difference:

 Avg Running Temp:

 Todays High:

 Todays Low:

 Y-days High:

 Y-days Low:

 Todays HeatIdx:

 Y-days HeatIdx:

 Evapotranspiration:

+4.6°F/hr 

+3.3°F

84.5°F

88.1°F 12:14pm

70.1°F 7:13am

88.9°F 1:02pm

69.2°F 6:47am

86.2°F 12:14pm

86.0°F 1:33pm

0.082 in

115' Above Ground

 Temperature:

 6'AGL VRS 115'AGL:

 Avg Running Temp:

 Humidity:

 Todays High:

 Todays Low:

 Y-days High:

 Y-days Low:

89.0°F 

+0.9°F

86.5°F

30% 

89.0°F 12:04pm

72.0°F 4:54am

89.0°F 4:02pm

71.0°F 6:30am

Temp & Humidity Graphs

  Wind 

Wind Speed

 Calm

Gusting to

 7.0 mph

Wind from S

179°  S

Calm

 Avg speed:

 Wind Run:

 Peak Gust:

  1.0 mph 

27.0 miles

  18.0 mph 12:58am

  Almanac  

Moon age: 6 days,21 hours,0 minutes,45%

Waxing Crescent
45%
Illuminated
6 days in cycle

 Moonrise:

 Moonset:

 Sunrise:

 Sunset:

 Solar Noon:

1:14pm

---

6:20am

7:56pm

1:08pm

2min 14s less daylight tomorrow 

  Solar Radiation 

(Current Solar)
  840 W/m2 (83%)
(Todays High)
 838 W/m2@12:09pm
Feels like: 105.6°F in the sun

Rain

 Rain Today:

 Rain Rate (/hr):

 Rain last hour:

 Rain Yesterday:

 This Month:

 Season Total:

83 Days Since Last Rain Day

0.00 in

0.000 in

0.00 in

0.00 in

0.00 in

0.00 in

Updated Time

Updated: 8/17/18  12:15pm

(Updated  sec ago)

Humidity & Barometer

 Humidity:

 Wetbulb:

 Dew Point:

 Barometer:

32% 

68.4°F 

54.5°F 

30.019 inHg 

 Baro Trend:  Steady 
Northern Calif
Preparedness
Fire 
Level 

    UV Index  

(Current UV)
7.6  High
(Todays High) @ 12:12pm
7.6   High

National Weather Service Forecast

This
Afternoon
This Afternoon: Haze
Haze
Tonight

Tonight: Haze
Haze
Saturday

Saturday: Haze
Haze
Saturday
Night
Saturday Night: Haze
Haze
Sunday

Sunday: Haze
Haze
Sunday
Night
Sunday Night: Haze
Haze
Hi 92 °F Lo 66 °F Hi 92 °F Lo 67 °F Hi 93 °F Lo 66 °F

Foresthill Probe 2 Stats  
Foresthill Probe 2: is located on Thomas Street
at 3000 feet. The main Foresthill Weather site
is located on Melody ln at the 2860 foot elevation

Light Air
91.4°F
33°C
Temp Rate:
+5.2°F
3.0 mph
Gusting to
5.0 mph
(Humidity)
27%
Wind from NE
48°  NE
Updated: 17/08/18 - 12:10:56
 Todays High: 91.4°F 12:10
 Todays Low: 68.1°F 06:50
 Rain Today: 0.00 in
 Season Total: 0.00 in

Foresthill Wx: Monthly,Yearly, Highs and Lows 

Foresthill  
This Weather Data is coming from the main Foresthill
Weather site located on Melody ln at the 2860 foot
elevation
Not Foresthill Probe 2
Weather Data
Month
  High
Month
  Low
Year
High
Year
Low
Temp 93.9°F
8/10/18
63.0°F
8/6/18
93.9°F
8/10/18
21.9°F
2/23/18
Humidity 58%
8/7/18
14%
8/1/18
100%
1/8/18
12%
7/8/18
Heat Index 90.9°F
8/10/18
63.0°F
8/6/18
93.3°F
7/25/18
27.1°F
2/20/18
Wind Chill 93.9°F
8/10/18
62.0°F
8/6/18
93.9°F
8/10/18
9.2°F
2/23/18
Wind Gust 21 mph
8/5/18
0 mph
8/1/18
43 mph
3/1/18
0 mph
1/1/18
Barometer 30.03 in
8/17/18
29.81 in
8/14/18
30.55 in
1/27/18
29.60 in
6/16/18
ET 0.23 in
8/12/18
0.00 in
8/1/18
0.25 in
6/24/18
0.00 in
1/1/18
Dew Point 58.7°F
8/1/18
33.2°F
8/4/18
66.9°F
7/24/18
7.6°F
2/11/18
Pacific Satellite US Radar Satellite Imagery Sacramento,CA.  (click to enlarge)
NWS Weather Forecast - Summary
Updated: Friday, August 17, 2018 - 3:00am PDT
Current Interstate Highway Conditions for I-80 & US-50

[I 80: IN THE SAN FRANCISCO BAY AREA - SOLANO CO]
no traffic restrictions are reported for this area.

[I 80: IN THE NORTHERN CALIFORNIA AREA & SIERRA NEVADA]
no traffic restrictions are reported for this area.

[US 50: IN THE SACRAMENTO VALLEY & THE LAKE TAHOE BASIN]
no traffic restrictions are reported for this area.
NWS Weather Forecast: This Afternoon and Tonight (Updated: Fri, 17-Aug-2018 1:39am PDT)
This
Afternoon
This Afternoon: Haze
Haze

Hi 92 °F
NWS forecast: Haze. Sunny, with a high near 92. Southwest wind around 8 mph.
Tonight

Tonight: Haze
Haze

Lo 66 °F
NWS forecast: Haze. Clear, with a low around 66. East southeast wind 3 to 8 mph.
YR.NO 10 Day Weather forecast
Last update: 08/17/2018 @ 00:37
Next update: 08/17/2018 @ 13:00
Provided by: 22
      Temperature Precipitation Pressure Wind  
Today
08/17/2018
10:00 12:00 86°F   30.03 inHg Light breeze from southwest 4 mph
  12:00 18:00 90°F   30.02 inHg Light breeze from west-southwest 7 mph
  18:00 00:00 86°F   29.98 inHg Light breeze from west-southwest 6 mph
    (Click to enlarge)
meteogram

    Forecast for next 9 days

      Temperature Precip Pressure Wind  
Saturday
08/18/2018
00:00 06:00 63°F   30.02 inHg Light air from east-northeast 3 mph
  06:00 12:00 59°F   30.01 inHg Light breeze from east-northeast 7 mph
  12:00 18:00 91°F   30.01 inHg Light breeze from southwest 6 mph
  18:00 00:00 88°F   29.93 inHg Light breeze from west-southwest 5 mph
      Temperature Precip Pressure Wind  
Sunday
08/19/2018
00:00 06:00 59°F   29.96 inHg Light air from east-northeast 3 mph
  06:00 12:00 57°F   29.93 inHg Light breeze from east-northeast 6 mph
  12:00 18:00 91°F   29.91 inHg Light breeze from southwest 6 mph
  17:00 23:00 90°F   29.81 inHg Light breeze from southwest 6 mph
  23:00 05:00 68°F   29.83 inHg Light breeze from east 5 mph
      Temperature Precip Pressure Wind  
Monday
08/20/2018
05:00 11:00 61°F   29.79 inHg Light breeze from east-northeast 7 mph
  11:00 17:00 88°F   29.80 inHg Light breeze from south-southwest 7 mph
  17:00 23:00 86°F   29.76 inHg Gentle breeze from south-southwest 8 mph
  23:00 05:00 63°F   29.82 inHg Light breeze from east 5 mph
      Temperature Precip Pressure Wind  
Tuesday
08/21/2018
05:00 11:00 57°F   29.85 inHg Light air from east 3 mph
  11:00 17:00 79°F   29.93 inHg Light breeze from south-southwest 6 mph
  17:00 23:00 79°F   29.91 inHg Light breeze from southwest 6 mph
  23:00 05:00 61°F   29.98 inHg Light air from east-northeast 1 mph
      Temperature Precip Pressure Wind  
Wednesday
08/22/2018
05:00 11:00 54°F   29.97 inHg Light breeze from east-northeast 5 mph
  11:00 17:00 84°F   29.99 inHg Light breeze from southwest 5 mph
  17:00 23:00 86°F   29.91 inHg Light breeze from west-southwest 5 mph
  23:00 05:00 63°F   29.95 inHg Light air from east-northeast 2 mph
      Temperature Precip Pressure Wind  
Thursday
08/23/2018
05:00 11:00 55°F   29.93 inHg Light breeze from east-northeast 6 mph
  11:00 17:00 84°F   29.94 inHg Light breeze from southwest 6 mph
  17:00 23:00 86°F   29.84 inHg Light breeze from southwest 6 mph
  23:00 05:00 64°F   29.87 inHg Light air from east-northeast 3 mph
      Temperature Precip Pressure Wind  
Friday
08/24/2018
05:00 11:00 57°F   29.83 inHg Light breeze from east-northeast 6 mph
  11:00 17:00 82°F   29.85 inHg Light breeze from southwest 5 mph
  17:00 23:00 82°F   29.80 inHg Light breeze from southwest 6 mph
  23:00 05:00 63°F   29.86 inHg Light air from east 2 mph
      Temperature Precip Pressure Wind  
Saturday
08/25/2018
05:00 11:00 55°F   29.85 inHg Light breeze from east-northeast 5 mph
  11:00 17:00 82°F   29.89 inHg Light breeze from west-southwest 6 mph
  17:00 23:00 82°F   29.86 inHg Light breeze from west-southwest 6 mph
  23:00 05:00 64°F   29.92 inHg Light air from east 2 mph
      Temperature Precip Pressure Wind  
Sunday
08/26/2018
05:00 11:00 55°F   29.92 inHg Light breeze from east-northeast 5 mph
  11:00 17:00 84°F   29.95 inHg Light breeze from west-southwest 5 mph
How Close Are We To this Month's Temperature Record ?
Updated Friday, Aug 17, 2018- 12:10:00 PM

Current Temperature: 88.1°F

August's High: Temperature Record 97.8°F - Set on Sat, Aug 11, 2012 - 2:34:00 PM
We are currently 9.7°F Less than this Month's record High

August's Low: Temperature Record 57.5°F - Set on Sun, Aug 30, 2015 - 7:31:00 AM
We are currently 30.6°F More than this Month's record Low

Weather History For Friday, August 17, 2018


On this Day - In Weather History ...
Data courtesy of weatherforyou.com
powered by Cumulus v1.9.3 (1059)
Ambient Weather VWS v14.00
Top Contact Website Map Copyright © 2007 - 2018 Foresthillweather.com Never base important decisions on this or any weather information obtained from the Internet